KE4OGG Weather Reports


Display with metric or nautical units.
time (UTC)temp
F
wind
direction
speed
MPH
gust
MPH
rain 1hr
in
rain 24hr
in
rain mn
in
humidity
%
barometer
mb
20260903214027 95 92 0.0 8.0 0.00 0.00 0.00 37 1016.5
20260903213529 95 105 3.0 8.0 0.00 0.00 0.00 35 1016.4
20260903213049 95 91 1.0 5.0 0.00 0.00 0.00 37 1016.5
20260903212524 95 98 2.0 7.0 0.00 0.00 0.00 36 1016.4
20260903212025 95 86 3.0 7.0 0.00 0.00 0.00 36 1016.5
20260903211552 96 278 2.0 4.0 0.00 0.00 0.00 36 1016.5
20260903211025 96 94 0.0 2.0 0.00 0.00 0.00 36 1016.6
20260903210525 95 94 0.0 7.0 0.00 0.00 0.00 34 1016.7
20260903210049 95 0 1.0 7.0 0.00 0.00 0.00 35 1016.7
20260903205527 96 86 3.0 5.0 0.00 0.00 0.00 36 1016.7
20260903205024 95 115 1.0 4.0 0.00 0.00 0.00 36 1016.8
20260903204545 95 165 1.0 4.0 0.00 0.00 0.00 37 1016.7
20260903204029 95 110 0.0 4.0 0.00 0.00 0.00 36 1016.8
20260903203522 95 269 1.0 5.0 0.00 0.00 0.00 36 1016.8
20260903203055 95 139 2.0 5.0 0.00 0.00 0.00 37 1016.9
20260903202525 95 98 0.0 5.0 0.00 0.00 0.00 37 1017.1
20260903202026 94 101 2.0 5.0 0.00 0.00 0.00 38 1017.1
20260903201546 93 94 0.0 3.0 0.00 0.00 0.00 40 1017.2
20260903201028 93 89 1.0 4.0 0.00 0.00 0.00 38 1017.2
20260903200523 94 90 2.0 10.0 0.00 0.00 0.00 37 1017.3
20260903200043 95 91 2.0 10.0 0.00 0.00 0.00 36 1017.3
20260903195529 96 108 2.0 4.0 0.00 0.00 0.00 34 1017.3
20260903195027 97 298 1.0 3.0 0.00 0.00 0.00 34 1017.4
20260903194549 97 276 0.0 5.0 0.00 0.00 0.00 35 1017.4
20260903194028 97 79 1.0 5.0 0.00 0.00 0.00 35 1017.5
20260903193524 96 120 2.0 5.0 0.00 0.00 0.00 34 1017.6
20260903193048 97 96 1.0 4.0 0.00 0.00 0.00 34 1017.6
20260903192527 96 92 2.0 4.0 0.00 0.00 0.00 33 1017.6
20260903192024 96 97 0.0 4.0 0.00 0.00 0.00 39 1017.7
20260903191542 96 302 0.0 8.0 0.00 0.00 0.00 35 1017.8
20260903191025 97 89 3.0 8.0 0.00 0.00 0.00 34 1017.8
20260903190525 98 101 4.0 7.0 0.00 0.00 0.00 33 1017.8
20260903190047 97 110 2.0 11.0 0.00 0.00 0.00 36 1017.8
20260903185525 97 82 2.0 11.0 0.00 0.00 0.00 35 1017.9
20260903185025 98 97 2.0 4.0 0.00 0.00 0.00 34 1018.0
20260903184546 98 0 1.0 6.0 0.00 0.00 0.00 35 1018.1
20260903184030 98 103 1.0 6.0 0.00 0.00 0.00 32 1018.2
20260903183526 97 111 3.0 7.0 0.00 0.00 0.00 34 1018.2
20260903183047 97 286 1.0 7.0 0.00 0.00 0.00 35 1018.2
20260903182528 97 146 2.0 7.0 0.00 0.00 0.00 37 1018.3
20260903182025 97 101 3.0 7.0 0.00 0.00 0.00 34 1018.3
20260903181541 98 77 2.0 6.0 0.00 0.00 0.00 34 1018.3
20260903181023 97 103 1.0 6.0 0.00 0.00 0.00 37 1018.3
20260903180528 97 124 0.0 7.0 0.00 0.00 0.00 36 1018.4
20260903180049 96 97 2.0 7.0 0.00 0.00 0.00 37 1018.4
20260903175524 96 267 0.0 6.0 0.00 0.00 0.00 36 1018.4
20260903175025 95 94 2.0 8.0 0.00 0.00 0.00 40 1018.4
20260903174547 96 96 3.0 8.0 0.00 0.00 0.00 37 1018.5
20260903174028 95 98 2.0 5.0 0.00 0.00 0.00 39 1018.5
20260903173529 95 99 1.0 9.0 0.00 0.00 0.00 39 1018.6
20260903173044 95 93 4.0 9.0 0.00 0.00 0.00 38 1018.6
20260903172524 95 284 3.0 7.0 0.00 0.00 0.00 39 1018.6
20260903172026 96 105 3.0 7.0 0.00 0.00 0.00 36 1018.7
20260903171547 95 103 0.0 7.0 0.00 0.00 0.00 38 1018.9
20260903171027 95 96 2.0 7.0 0.00 0.00 0.00 37 1019.1
20260903170525 95 97 4.0 8.0 0.00 0.00 0.00 36 1019.1
20260903170047 96 117 3.0 8.0 0.00 0.00 0.00 36 1019.0
20260903165527 97 106 1.0 4.0 0.00 0.00 0.00 35 1019.1
20260903165029 96 94 1.0 4.0 0.00 0.00 0.00 36 1019.2
20260903164547 96 86 0.0 3.0 0.00 0.00 0.00 37 1019.1
20260903164026 95 104 1.0 3.0 0.00 0.00 0.00 37 1019.3
20260903163526 95 278 0.0 3.0 0.00 0.00 0.00 40 1019.3
20260903163046 95 310 0.0 3.0 0.00 0.00 0.00 40 1019.3
20260903162524 95 287 0.0 3.0 0.00 0.00 0.00 38 1019.3
20260903162024 94 74 0.0 3.0 0.00 0.00 0.00 44 1019.4
20260903161542 94 293 0.0 3.0 0.00 0.00 0.00 39 1019.4
20260903161021 92 0 0.0 4.0 0.00 0.00 0.00 43 1019.4
20260903160524 92 0 1.0 4.0 0.00 0.00 0.00 44 1019.4
20260903160047 92 300 2.0 4.0 0.00 0.00 0.00 41 1019.5
20260903155524 92 290 1.0 4.0 0.00 0.00 0.00 42 1019.5
20260903155024 92 297 1.0 4.0 0.00 0.00 0.00 41 1019.6
20260903154547 92 300 1.0 3.0 0.00 0.00 0.00 44 1019.6
20260903154027 93 292 1.0 2.0 0.00 0.00 0.00 41 1019.6
20260903153523 92 293 0.0 3.0 0.00 0.00 0.00 44 1019.6
20260903153045 91 293 0.0 3.0 0.00 0.00 0.00 45 1019.6
20260903152523 90 307 1.0 3.0 0.00 0.00 0.00 45 1019.6
20260903152023 90 0 0.0 3.0 0.00 0.00 0.00 46 1019.6
20260903151551 90 307 0.0 3.0 0.00 0.00 0.00 47 1019.6
20260903151021 90 7 0.0 3.0 0.00 0.00 0.00 47 1019.5
20260903150522 89 300 1.0 3.0 0.00 0.00 0.00 50 1019.6
20260903150106 89 294 1.0 3.0 0.00 0.00 0.00 47 1019.5
20260903145525 89 0 0.0 1.0 0.00 0.00 0.00 50 1019.6
20260903145024 88 321 0.0 4.0 0.00 0.00 0.00 53 1019.5
20260903144548 87 321 0.0 4.0 0.00 0.00 0.00 53 1019.5
20260903144027 87 306 1.0 4.0 0.00 0.00 0.00 51 1019.6
20260903143525 87 310 1.0 4.0 0.00 0.00 0.00 51 1019.5
20260903143045 88 273 0.0 2.0 0.00 0.00 0.00 50 1019.5
20260903142527 88 112 0.0 2.0 0.00 0.00 0.00 51 1019.6
20260903142027 87 285 0.0 3.0 0.00 0.00 0.00 52 1019.6
20260903141546 87 297 0.0 3.0 0.00 0.00 0.00 53 1019.6
20260903141024 86 0 1.0 4.0 0.00 0.00 0.00 53 1019.6
20260903140524 86 303 1.0 4.0 0.00 0.00 0.00 52 1019.6
20260903140051 86 306 0.0 4.0 0.00 0.00 0.00 53 1019.6
20260903135525 85 309 0.0 2.0 0.00 0.00 0.00 55 1019.6
20260903135026 85 0 0.0 4.0 0.00 0.00 0.00 55 1019.6
20260903134556 84 321 1.0 4.0 0.00 0.00 0.00 55 1019.8
20260903134026 84 68 1.0 4.0 0.00 0.00 0.00 56 1019.8
20260903133525 83 0 0.0 4.0 0.00 0.00 0.00 57 1019.8
20260903133048 83 302 0.0 4.0 0.00 0.00 0.00 58 1019.7
20260903132527 82 0 1.0 4.0 0.00 0.00 0.00 60 1019.7
20260903132025 81 0 1.0 3.0 0.00 0.00 0.00 60 1019.7
20260903131545 81 0 0.0 3.0 0.00 0.00 0.00 62 1019.7
20260903131023 80 281 0.0 3.0 0.00 0.00 0.00 62 1019.9
20260903130522 80 285 0.0 3.0 0.00 0.00 0.00 62 1019.9
20260903130058 79 281 0.0 1.0 0.00 0.00 0.00 63 1019.8
20260903125525 79 0 0.0 1.0 0.00 0.00 0.00 64 1019.8
20260903125025 79 0 0.0 3.0 0.00 0.00 0.00 64 1019.8
20260903124554 78 0 0.0 3.0 0.00 0.00 0.00 64 1019.8
20260903124027 78 18 0.0 2.0 0.00 0.00 0.00 64 1019.8
20260903123527 78 300 0.0 1.0 0.00 0.00 0.00 64 1019.8
20260903123047 78 0 0.0 1.0 0.00 0.00 0.00 64 1019.9
20260903122525 77 328 0.0 1.0 0.00 0.00 0.00 65 1019.8
20260903122024 77 0 0.0 0.0 0.00 0.00 0.00 67 1019.8
20260903121553 76 0 0.0 0.0 0.00 0.00 0.00 69 1019.8
20260903121021 75 0 0.0 0.0 0.00 0.00 0.00 71 1019.9
20260903120527 75 0 0.0 0.0 0.00 0.00 0.00 71 1019.9
20260903120054 75 0 0.0 0.0 0.00 0.00 0.00 72 1019.9
20260903115525 75 0 0.0 0.0 0.00 0.00 0.00 72 1019.8
20260903115024 74 0 0.0 1.0 0.00 0.00 0.00 72 1019.7
20260903114549 74 0 0.0 1.0 0.00 0.00 0.00 73 1019.7
20260903114025 74 0 0.0 0.0 0.00 0.00 0.00 73 1019.7
20260903113525 74 0 0.0 0.0 0.00 0.00 0.00 73 1019.5
20260903113051 74 0 0.0 0.0 0.00 0.00 0.00 73 1019.4
20260903112523 74 0 0.0 0.0 0.00 0.00 0.00 73 1019.4
20260903112025 74 0 0.0 1.0 0.00 0.00 0.00 73 1019.3
20260903111542 74 0 0.0 1.0 0.00 0.00 0.00 73 1019.3
20260903111021 74 117 0.0 1.0 0.00 0.00 0.00 74 1019.2
20260903110525 73 0 0.0 0.0 0.00 0.00 0.00 74 1019.2
20260903110047 73 0 0.0 0.0 0.00 0.00 0.00 73 1019.2
20260903105524 74 0 0.0 0.0 0.00 0.00 0.00 73 1019.1
20260903105024 74 0 0.0 0.0 0.00 0.00 0.00 73 1019.1
20260903104545 74 0 0.0 0.0 0.00 0.00 0.00 73 1019.0
20260903104031 74 0 0.0 0.0 0.00 0.00 0.00 73 1019.0
20260903103523 73 0 0.0 0.0 0.00 0.00 0.00 73 1019.0
20260903103044 73 0 0.0 0.0 0.00 0.00 0.00 73 1018.9
20260903102525 73 0 0.0 0.0 0.00 0.00 0.00 73 1018.8
20260903102023 73 0 0.0 0.0 0.00 0.00 0.00 73 1018.7
20260903101633 73 0 0.0 0.0 0.00 0.00 0.00 73 1018.7
20260903101024 74 0 0.0 0.0 0.00 0.00 0.00 72 1018.7
20260903100525 74 0 0.0 0.0 0.00 0.00 0.00 71 1018.8
20260903100048 74 0 0.0 0.0 0.00 0.00 0.00 71 1018.8
20260903095527 74 0 0.0 0.0 0.00 0.00 0.00 71 1018.8
20260903095024 74 0 0.0 0.0 0.00 0.00 0.00 70 1018.8
20260903094557 74 0 0.0 0.0 0.00 0.00 0.00 70 1018.8
20260903094026 74 0 0.0 0.0 0.00 0.00 0.00 70 1018.6
20260903093529 74 0 0.0 0.0 0.00 0.00 0.00 69 1018.8
20260903093043 74 0 0.0 0.0 0.00 0.00 0.00 69 1018.7
20260903092521 75 0 0.0 0.0 0.00 0.00 0.00 69 1018.7
20260903092025 75 0 0.0 0.0 0.00 0.00 0.00 69 1018.5
20260903091602 75 0 0.0 0.0 0.00 0.00 0.00 69 1018.4
20260903091025 75 0 0.0 0.0 0.00 0.00 0.00 69 1018.4
20260903090524 75 0 0.0 0.0 0.00 0.00 0.00 68 1018.5
20260903090048 75 0 0.0 0.0 0.00 0.00 0.00 68 1018.5
20260903085524 75 0 0.0 0.0 0.00 0.00 0.00 67 1018.5
20260903085027 75 0 0.0 0.0 0.00 0.00 0.00 67 1018.5
20260903084551 76 0 0.0 0.0 0.00 0.00 0.00 66 1018.5
20260903084024 76 0 0.0 1.0 0.00 0.00 0.00 66 1018.4
20260903083524 76 0 0.0 2.0 0.00 0.00 0.00 65 1018.4
20260903083046 76 117 0.0 3.0 0.00 0.00 0.00 65 1018.4
20260903082524 77 0 1.0 3.0 0.00 0.00 0.00 65 1018.4
20260903082024 77 0 0.0 0.0 0.00 0.00 0.00 64 1018.3
20260903081542 77 0 0.0 0.0 0.00 0.00 0.00 64 1018.2
20260903081025 77 0 0.0 0.0 0.00 0.00 0.00 64 1018.2
20260903080525 77 0 0.0 0.0 0.00 0.00 0.00 63 1018.1
20260903080048 77 0 0.0 0.0 0.00 0.00 0.00 63 1018.1
20260903075523 78 0 0.0 0.0 0.00 0.00 0.00 62 1018.1
20260903075024 78 0 0.0 0.0 0.00 0.00 0.00 62 1018.0
20260903074550 78 0 0.0 0.0 0.00 0.00 0.00 62 1018.1
20260903074025 78 354 0.0 1.0 0.00 0.00 0.00 62 1018.1
20260903073524 78 0 0.0 1.0 0.00 0.00 0.00 62 1018.2
20260903073046 79 0 0.0 1.0 0.00 0.00 0.00 61 1018.1
20260903072525 79 0 0.0 1.0 0.00 0.00 0.00 61 1017.9
20260903072024 79 0 0.0 1.0 0.00 0.00 0.00 62 1018.0
20260903071542 79 308 0.0 0.0 0.00 0.00 0.00 62 1018.2
20260903071024 79 0 0.0 0.0 0.00 0.00 0.00 62 1018.3
20260903070525 79 0 0.0 1.0 0.00 0.00 0.00 63 1018.3
20260903070048 79 0 0.0 1.0 0.00 0.00 0.00 63 1018.4
20260903065525 79 0 0.0 1.0 0.00 0.00 0.00 64 1018.4
20260903065026 78 324 0.0 1.0 0.00 0.00 0.00 65 1018.5
20260903064546 78 0 0.0 1.0 0.00 0.00 0.00 65 1018.5
20260903064023 78 0 0.0 1.0 0.00 0.00 0.00 66 1018.5
20260903063529 78 0 0.0 1.0 0.00 0.00 0.00 66 1018.5
20260903063054 78 0 0.0 1.0 0.00 0.00 0.00 66 1018.6
20260903062525 78 0 0.0 1.0 0.00 0.00 0.00 67 1018.6
20260903062027 78 0 0.0 1.0 0.00 0.00 0.00 67 1018.5
20260903061551 78 0 0.0 1.0 0.00 0.00 0.00 67 1018.6
20260903061029 78 0 0.0 1.0 0.00 0.00 0.00 67 1018.5
20260903060525 78 0 0.0 1.0 0.00 0.00 0.00 67 1018.6
20260903060047 78 0 0.0 0.0 0.00 0.00 0.00 68 1018.7
20260903055526 78 0 0.0 1.0 0.00 0.00 0.00 68 1018.7
20260903055027 78 0 0.0 1.0 0.00 0.00 0.00 68 1018.7
20260903054546 78 0 0.0 0.0 0.00 0.00 0.00 68 1018.7
20260903054025 78 0 0.0 0.0 0.00 0.00 0.00 68 1018.7
20260903053530 78 0 0.0 0.0 0.00 0.00 0.00 68 1018.7
20260903053106 78 0 0.0 0.0 0.00 0.00 0.00 68 1018.8
20260903052525 79 0 0.0 0.0 0.00 0.00 0.00 67 1018.8
20260903052025 79 0 0.0 0.0 0.00 0.00 0.00 67 1018.9
20260903051549 79 0 0.0 0.0 0.00 0.00 0.00 67 1018.8
20260903051024 79 0 0.0 0.0 0.00 0.00 0.00 67 1018.8
20260903050525 79 0 0.0 0.0 0.00 0.00 0.00 67 1018.8
20260903050059 79 0 0.0 0.0 0.00 0.00 0.00 67 1018.9
20260903045528 79 0 0.0 0.0 0.00 0.00 0.00 66 1018.9
20260903045025 79 0 0.0 0.0 0.00 0.00 0.00 66 1018.9
20260903044556 79 0 0.0 0.0 0.00 0.00 0.00 66 1018.9
20260903044024 79 0 0.0 0.0 0.00 0.00 0.00 66 1018.9
20260903043527 79 0 0.0 0.0 0.00 0.00 0.00 66 1018.9
20260903043047 79 0 0.0 0.0 0.00 0.00 0.00 65 1018.8
20260903042524 79 0 0.0 0.0 0.00 0.00 0.00 65 1018.8
20260903042027 79 0 0.0 0.0 0.00 0.00 0.00 65 1018.8
20260903041554 79 0 0.0 0.0 0.00 0.00 0.00 65 1018.9
20260903041026 80 0 0.0 0.0 0.00 0.00 0.00 65 1019.0
20260903040524 79 0 0.0 0.0 0.00 0.00 0.00 65 1019.0
20260903040049 80 0 0.0 0.0 0.00 0.00 0.00 64 1019.1
20260903035529 80 0 0.0 0.0 0.00 0.00 0.00 64 1019.0
20260903035027 80 0 0.0 0.0 0.00 0.00 0.00 64 1019.1
20260903034545 80 0 0.0 0.0 0.00 0.00 0.00 63 1019.1
20260903034031 80 0 0.0 0.0 0.00 0.00 0.00 63 1019.1
20260903033528 80 0 0.0 0.0 0.00 0.00 0.00 62 1019.1
20260903033050 81 0 0.0 0.0 0.00 0.00 0.00 62 1019.2
20260903032526 81 0 0.0 0.0 0.00 0.00 0.00 62 1019.2
20260903032026 81 0 0.0 0.0 0.00 0.00 0.00 62 1019.3
20260903031554 81 0 0.0 0.0 0.00 0.00 0.00 61 1019.3
20260903031028 81 0 0.0 0.0 0.00 0.00 0.00 61 1019.3
20260903030525 82 0 0.0 0.0 0.00 0.00 0.00 61 1019.3
20260903030046 82 0 0.0 0.0 0.00 0.00 0.00 60 1019.3
20260903025526 82 0 0.0 0.0 0.00 0.00 0.00 60 1019.3
20260903025028 82 0 0.0 0.0 0.00 0.00 0.00 60 1019.3
20260903024542 82 0 0.0 0.0 0.00 0.00 0.00 59 1019.3
20260903024027 82 0 0.0 0.0 0.00 0.00 0.00 58 1019.4
20260903023524 82 0 0.0 0.0 0.00 0.00 0.00 58 1019.4
20260903023047 82 0 0.0 0.0 0.00 0.00 0.00 57 1019.3
20260903022530 82 0 0.0 0.0 0.00 0.00 0.00 56 1019.3
20260903022025 82 0 0.0 1.0 0.00 0.00 0.00 56 1019.3
20260903021552 83 0 0.0 1.0 0.00 0.00 0.00 55 1019.2
20260903021027 83 0 0.0 1.0 0.00 0.00 0.00 55 1019.2
20260903020524 83 0 0.0 0.0 0.00 0.00 0.00 55 1019.2
20260903020045 83 0 0.0 0.0 0.00 0.00 0.00 54 1019.2
20260903015527 84 0 0.0 0.0 0.00 0.00 0.00 53 1019.1
20260903015025 84 0 0.0 0.0 0.00 0.00 0.00 54 1019.1
20260903014556 84 0 0.0 0.0 0.00 0.00 0.00 54 1019.1
20260903014026 83 0 0.0 0.0 0.00 0.00 0.00 54 1018.9
20260903013525 83 0 0.0 0.0 0.00 0.00 0.00 54 1018.8
20260903013049 83 0 0.0 0.0 0.00 0.00 0.00 54 1018.6
20260903012528 84 0 0.0 0.0 0.00 0.00 0.00 54 1018.5
20260903012028 84 0 0.0 0.0 0.00 0.00 0.00 52 1018.4
20260903011547 84 0 0.0 0.0 0.00 0.00 0.00 53 1018.4
20260903011026 84 0 0.0 0.0 0.00 0.00 0.00 52 1018.4
20260903010526 85 0 0.0 0.0 0.00 0.00 0.00 52 1018.4
20260903010045 85 0 0.0 0.0 0.00 0.00 0.00 51 1018.3
20260903005526 85 0 0.0 0.0 0.00 0.00 0.00 51 1018.2
20260903005025 85 0 0.0 0.0 0.00 0.00 0.00 50 1018.2
20260903004542 86 0 0.0 0.0 0.00 0.00 0.00 49 1018.2
20260903004023 86 0 0.0 0.0 0.00 0.00 0.00 48 1018.1
20260903003526 86 0 0.0 0.0 0.00 0.00 0.00 49 1018.1
20260903003051 86 0 0.0 0.0 0.00 0.00 0.00 48 1018.2
20260903002525 87 0 0.0 0.0 0.00 0.00 0.00 48 1018.1
20260903002026 87 0 0.0 0.0 0.00 0.00 0.00 48 1018.0
20260903001550 87 0 0.0 0.0 0.00 0.00 0.00 48 1018.0
20260903001027 87 0 0.0 0.0 0.00 0.00 0.00 47 1018.0
20260903000524 88 0 0.0 1.0 0.00 0.00 0.00 46 1018.0
20260903000046 88 0 0.0 1.0 0.00 0.00 0.00 45 1017.9
20260902235524 89 0 0.0 1.0 0.00 0.00 0.00 44 1017.8
20260902235024 90 0 0.0 0.0 0.00 0.00 0.00 42 1017.8
20260902234546 90 0 0.0 1.0 0.00 0.00 0.00 41 1017.8
20260902234024 90 0 0.0 1.0 0.00 0.00 0.00 40 1017.8
20260902233524 91 0 0.0 0.0 0.00 0.00 0.00 39 1017.8
20260902233049 91 0 0.0 0.0 0.00 0.00 0.00 38 1017.9
20260902232521 92 0 0.0 0.0 0.00 0.00 0.00 37 1017.9
20260902232027 92 0 0.0 1.0 0.00 0.00 0.00 38 1017.9
20260902231544 92 0 0.0 1.0 0.00 0.00 0.00 36 1017.9
20260902231024 92 0 0.0 0.0 0.00 0.00 0.00 38 1017.9
20260902230526 93 0 0.0 0.0 0.00 0.00 0.00 37 1017.9
20260902230047 93 0 0.0 1.0 0.00 0.00 0.00 34 1018.0
20260902225524 93 0 0.0 1.0 0.00 0.00 0.00 36 1018.0
20260902225028 94 0 0.0 1.0 0.00 0.00 0.00 34 1018.0
20260902224546 94 0 0.0 1.0 0.00 0.00 0.00 34 1018.1
20260902224023 94 0 0.0 4.0 0.00 0.00 0.00 34 1018.1
20260902223524 94 103 2.0 4.0 0.00 0.00 0.00 34 1018.1
20260902223051 94 103 1.0 3.0 0.00 0.00 0.00 34 1018.1
20260902222528 94 0 0.0 3.0 0.00 0.00 0.00 35 1018.2
20260902222023 94 107 0.0 1.0 0.00 0.00 0.00 35 1018.1
20260902221543 94 0 0.0 3.0 0.00 0.00 0.00 34 1018.2
20260902221024 94 0 0.0 3.0 0.00 0.00 0.00 33 1018.2
20260902220525 94 63 1.0 3.0 0.00 0.00 0.00 34 1018.2
20260902220047 95 60 0.0 3.0 0.00 0.00 0.00 34 1018.2
20260902215525 95 60 1.0 5.0 0.00 0.00 0.00 35 1018.1
20260902215024 95 0 0.0 5.0 0.00 0.00 0.00 34 1018.1
20260902214548 95 94 1.0 5.0 0.00 0.00 0.00 35 1018.1